This demonstration page uses our WeatherBlox Daily Observations layout. Learn more.

Left ArrowRight Arrow

Hourly Observations for July 25, 2018

Temp ( °F °C ) Dew Point ( °F °C ) Humidity (%) Winds ( mph kmh ) Pressure ( in mb ) Visibility ( mi km ) Precip ( " mm )
12:53 am 00:53 Partly Cloudy 61 16.1 56 13.3 84 84 NE 14 22 30.20 1023 10 16 0.00 0.03
1:53 am 01:53 Cloudy with Light Rain 59 15 56 13.3 90 90 E 9 15 30.22 1023 10 16 0.04 1.02
2:53 am 02:53 Cloudy 58 14.4 56 13.3 93 93 NE 8 13 30.24 1024 10 16 0.00 0.03
3:53 am 03:53 Mostly Cloudy with Light Rain 57 13.9 55 12.8 93 93 N 6 9 30.26 1025 10 16 0.01 0.25
4:53 am 04:53 Cloudy 57 13.9 54 12.2 90 90 E 5 7 30.25 1025 10 16 0.00 0.03
5:53 am 05:53 Cloudy 57 13.9 53 11.7 87 87 NE 3 6 30.28 1025 10 16 0.01 0.25
6:53 am 06:53 Cloudy 57 13.9 53 11.7 87 87 Calm 30.29 1026 10 16 0.00 0.00
7:53 am 07:53 Cloudy 58 14.4 53 11.7 84 84 Calm 30.31 1026 10 16 0.00 0.00
8:53 am 08:53 Cloudy 59 15 53 11.7 81 81 Calm 30.32 1027 10 16 0.00 0.00
9:53 am 09:53 Mostly Cloudy 61 16.1 53 11.7 75 75 ESE 3 6 30.32 1027 10 16 0.00 0.00
10:53 am 10:53 Mostly Sunny 65 18.3 52 11.1 63 63 E 7 11 30.31 1026 10 16 0.00 0.00
11:53 am 11:53 Mostly Cloudy 66 18.9 51 10.6 59 59 VRB 3 6 30.29 1026 10 16 0.00 0.00
12:53 pm 12:53 Sunny 69 20.6 49 9.4 49 49 ESE 6 9 30.28 1025 10 16 0.00 0.00
1:53 pm 13:53 Sunny 73 22.8 49 9.4 43 43 E 6 9 30.26 1025 10 16 0.00 0.00
2:53 pm 14:53 Cloudy 76 24.4 46 7.8 35 35 VRB 7 11 30.24 1024 10 16 0.00 0.00
3:53 pm 15:53 Cloudy 74 23.3 45 7.2 36 36 ENE 3 6 30.22 1023 10 16 0.00 0.00
4:53 pm 16:53 Mostly Cloudy 77 25 46 7.8 33 33 E 9 15 30.21 1023 10 16 0.00 0.00
5:53 pm 17:53 Partly Cloudy 77 25 44 6.7 31 31 ENE 7 11 30.20 1023 10 16 0.00 0.00
6:53 pm 18:53 Sunny 78 25.6 43 6.1 29 29 NNE 8 13 30.19 1022 10 16 0.00 0.00
7:53 pm 19:53 Sunny 75 23.9 45 7.2 34 34 ENE 7 11 30.19 1022 10 16 0.00 0.00
8:53 pm 20:53 Sunny 70 21.1 45 7.2 41 41 ENE 9 15 30.20 1023 10 16 0.00 0.00
9:53 pm 21:53 Clear 66 18.9 46 7.8 49 49 ENE 7 11 30.23 1024 10 16 0.00 0.00
10:53 pm 22:53 Clear 63 17.2 46 7.8 54 54 ENE 9 15 30.24 1024 10 16 0.00 0.00
11:53 pm 23:53 Clear 58 14.4 48 8.9 70 70 E 7 11 30.26 1025 10 16 0.00 0.00

Powered by AerisWeather